Location: Brachstadt
(48.6975°N, 10.6755°E)
Time: 12:09:16
(UTC+00:00)

Envisat - Pass Details

Date: 03 December 2022
Orbit: 763 x 765 km, 98.2° (Epoch: 06 February)

Event Time Altitude Azimuth Distance (km) Brightness Sun altitude
Rises 02:39:48 0° 23° (NNE) 3,245 6.6 -40.4°
Reaches altitude 10° 02:42:27 10° 35° (NE) 2,314 5.9 -40.0°
Enters shadow 02:43:32 15° 44° (NE) 1,977 5.6 -39.8°
